Location: Ballingbuur
(53.0000°N, 5.7667°E)
Time: 06:36:03
(UTC+00:00)

deb Chang Zheng 4 - Pass Details

Date: 29 November 2020
Orbit: 601 x 623 km, 98.6° (Epoch: 23 January)

Event Time Altitude Azimuth Distance (km) Brightness Sun altitude
Rises 05:24:23 0° 11° (N) 2,910 7.0 -17.2°
Reaches altitude 10° 05:26:39 10° 5° (N) 2,003 6.1 -16.9°
Maximum altitude 05:30:47 44° 294° (WNW) 869 3.8 -16.3°
Drops below altitude 10° 05:34:54 10° 222° (SW) 1,997 5.9 -15.7°
Sets 05:37:09 0° 216° (SW) 2,900 6.8 -15.3°
